カタログに戻る

THOR ABLESTAR DEB

運用中LEO
NORAD 410·DEBRIS·🇺🇸 United States

打ち上げ Jun 29, 1961 から Cape Canaveral Space Force Station

Loading…

次のパス (今後24時間)

TLE

最新Source: Space-Track

元期: Sep 14, 2026, 13:58 UTC

1 00410U 61015EK  26257.58258556  .00000019  00000-0  95176-4 0  9996
2 00410  66.6930 184.8011 0020445 295.4167 239.2336 13.76626195272374

AllMySatでTHOR ABLESTAR DEBをリアルタイム追跡

Download on the App Store